Date String (YYYY-MM-DD hh:mm:ss) UTC,Instrument flags,Ambient pressure (hPa),Sample flow (lpm),Bypass flow (lpm),Sample temperature (°C),Ambient temperature (°C),ASC tube jacket temperature (°C),LED temperature (°C),Box temperature (°C),Sample RH (%),Span deviation,Mass concentration (μg/m³),Mass concentration (μg/m³),Mass concentration (μg/m³)
DateTimeUTC,F1_M11,P_M11,Q1_M11,Q2_M11,T1_M11,T2_M11,T3_M11,T4_M11,T5_M11,U1_M11,ZSPAN_M11,X0_M11,X2_M11,X1_M11
2022-04-05 17:00:00,,0812.5,5.00,0.00,25.8,25.1,00.0,34.8,27.6,18.4,0000.0,0006.52,0001.20,0000.32
2022-04-05 17:01:00,,0812.5,5.00,0.00,25.8,25.1,00.0,34.8,27.6,18.9,0000.0,0006.65,0001.26,0000.32
2022-04-05 17:02:00,,0812.6,5.01,0.00,25.8,25.1,00.0,34.8,27.6,18.4,0000.0,0005.21,0001.31,0000.33
2022-04-05 17:03:00,,0812.6,4.99,0.00,25.8,25.1,00.0,34.8,27.6,18.5,0000.0,0004.48,0001.32,0000.34
2022-04-05 17:04:00,,0812.6,4.99,0.00,25.8,25.1,00.0,34.8,27.6,18.6,0000.0,0004.69,0001.36,0000.34
2022-04-05 17:05:00,,0812.6,5.00,0.00,25.8,25.1,00.0,34.8,27.6,18.5,0000.0,0004.80,0001.38,0000.35
2022-04-05 17:06:00,,0812.6,5.01,0.00,25.7,25.1,00.0,34.8,27.6,18.5,0000.0,0004.48,0001.38,0000.35
2022-04-05 17:07:00,,0812.7,5.00,0.00,25.7,25.1,00.0,34.8,27.6,19.1,0000.0,0004.08,0001.36,0000.35
2022-04-05 17:08:00,,0812.8,5.00,0.00,25.7,25.1,00.0,34.8,27.6,18.8,0000.0,0006.27,0001.43,0000.35
2022-04-05 17:09:00,,0812.7,4.99,0.00,25.7,25.1,00.0,34.8,27.6,18.6,0000.0,0007.48,0001.57,0000.37
2022-04-05 17:10:00,,0812.8,5.00,0.00,25.8,25.1,00.0,34.8,27.6,18.1,0000.0,0008.25,0001.56,0000.39
2022-04-05 17:11:00,,0812.9,4.99,0.00,25.8,25.1,00.0,34.8,27.6,18.5,0000.0,0008.42,0001.55,0000.39
2022-04-05 17:12:00,,0812.8,5.00,0.00,25.8,25.1,00.0,34.8,27.6,18.4,0000.0,0008.59,0001.59,0000.39
2022-04-05 17:13:00,,0812.7,5.00,0.00,25.8,25.2,00.0,34.8,27.7,17.1,0000.0,0009.14,0001.63,0000.40
2022-04-05 17:14:00,,0812.9,5.00,0.00,25.8,25.2,00.0,34.8,27.7,17.0,0000.0,0009.26,0001.66,0000.39
2022-04-05 17:15:00,,0812.9,5.00,0.00,25.8,25.2,00.0,34.8,27.7,18.3,0000.0,0009.58,0001.63,0000.38
2022-04-05 17:16:00,,0812.9,4.99,0.00,25.8,25.1,00.0,34.8,27.6,18.5,0000.0,0009.68,0001.67,0000.38
2022-04-05 17:17:00,,0812.9,5.00,0.00,25.8,25.1,00.0,34.8,27.6,19.1,0000.0,0009.66,0001.66,0000.39
2022-04-05 17:18:00,,0812.9,5.01,0.00,25.8,25.0,00.0,34.8,27.6,19.0,0000.0,0009.67,0001.71,0000.39
2022-04-05 17:19:00,,0812.8,4.99,0.00,25.7,25.0,00.0,34.8,27.5,18.9,0000.0,0008.60,0001.64,0000.39
2022-04-05 17:20:00,,0812.8,4.99,0.00,25.7,24.9,00.0,34.8,27.5,18.2,0000.0,0008.26,0001.56,0000.38
2022-04-05 17:21:00,,0813.0,5.00,0.00,25.7,24.9,00.0,34.7,27.5,17.2,0000.0,0007.74,0001.51,0000.37
2022-04-05 17:22:00,,0813.0,5.02,0.00,25.7,24.9,00.0,34.7,27.4,17.1,0000.0,0008.38,0001.44,0000.36
2022-04-05 17:23:00,,0812.9,4.99,0.00,25.7,24.9,00.0,34.7,27.4,17.7,0000.0,0008.79,0001.39,0000.36
2022-04-05 17:24:00,,0812.7,4.99,0.00,25.6,24.9,00.0,34.7,27.4,17.6,0000.0,0008.52,0001.25,0000.35
2022-04-05 17:25:00,,0812.5,5.00,0.00,25.6,24.9,00.0,34.7,27.4,17.5,0000.0,0009.05,0001.24,0000.36
2022-04-05 17:26:00,,0812.4,4.99,0.00,25.6,24.9,00.0,34.7,27.4,17.4,0000.0,0009.01,0001.19,0000.36
2022-04-05 17:27:00,,0812.3,5.00,0.00,25.6,24.8,00.0,34.7,27.4,15.6,0000.0,0008.85,0001.09,0000.34
2022-04-05 17:28:00,,0812.2,5.00,0.00,25.6,24.7,00.0,34.7,27.3,15.2,0000.0,0008.77,0001.07,0000.32
2022-04-05 17:29:00,,0812.3,5.01,0.00,25.5,24.6,00.0,34.7,27.2,15.1,0000.0,0008.70,0001.07,0000.31
2022-04-05 17:30:00,,0812.4,5.01,0.00,25.5,24.6,00.0,34.6,27.2,14.4,0000.0,0008.65,0001.07,0000.30
2022-04-05 17:31:00,,0812.4,4.99,0.00,25.5,24.6,00.0,34.6,27.2,15.1,0000.0,0008.15,0001.04,0000.28
2022-04-05 17:32:00,,0812.4,5.01,0.00,25.4,24.6,00.0,34.6,27.1,15.4,0000.0,0007.90,0001.05,0000.27
2022-04-05 17:33:00,,0812.3,5.00,0.00,25.4,24.5,00.0,34.6,27.1,15.6,0000.0,0006.58,0001.00,0000.27
2022-04-05 17:34:00,,0812.3,5.00,0.00,25.4,24.4,00.0,34.6,27.1,15.2,0000.0,0005.37,0000.95,0000.26
2022-04-05 17:35:00,,0812.3,5.00,0.00,25.3,24.4,00.0,34.5,27.0,15.7,0000.0,0004.57,0000.95,0000.25
2022-04-05 17:36:00,,0812.3,5.01,0.00,25.3,24.3,00.0,34.5,27.0,15.9,0000.0,0002.85,0000.91,0000.24
2022-04-05 17:37:00,,0812.3,4.99,0.00,25.2,24.2,00.0,34.5,26.9,15.9,0000.0,0002.21,0000.90,0000.24
2022-04-05 17:38:00,,0812.3,4.99,0.00,25.2,24.1,00.0,34.4,26.8,15.9,0000.0,0002.60,0000.89,0000.24
2022-04-05 17:39:00,,0812.2,5.00,0.00,25.1,24.1,00.0,34.4,26.8,15.7,0000.0,0002.77,0000.84,0000.24
2022-04-05 17:40:00,,0812.2,5.01,0.00,25.1,24.0,00.0,34.4,26.7,15.7,0000.0,0002.47,0000.73,0000.25
2022-04-05 17:41:00,,0812.2,4.99,0.00,25.1,24.0,00.0,34.3,26.7,15.7,0000.0,0002.52,0000.71,0000.24
2022-04-05 17:42:00,,0812.2,5.00,0.00,25.0,24.0,00.0,34.3,26.7,15.6,0000.0,0002.69,0000.69,0000.25
2022-04-05 17:43:00,,0812.1,5.01,0.00,25.0,24.0,00.0,34.3,26.7,15.6,0000.0,0002.76,0000.69,0000.24
2022-04-05 17:44:00,,0812.0,5.00,0.00,25.0,24.0,00.0,34.3,26.7,15.4,0000.0,0002.94,0000.72,0000.25
2022-04-05 17:45:00,,0812.0,5.00,0.00,25.0,24.0,00.0,34.2,26.7,15.6,0000.0,0003.23,0000.79,0000.25
2022-04-05 17:46:00,,0812.0,5.00,0.00,24.9,24.0,00.0,34.2,26.6,15.0,0000.0,0003.25,0000.79,0000.25
2022-04-05 17:47:00,,0812.1,5.00,0.00,24.9,24.1,00.0,34.2,26.6,14.0,0000.0,0003.25,0000.79,0000.25
2022-04-05 17:48:00,,0812.0,5.00,0.00,24.9,24.1,00.0,34.1,26.6,14.4,0000.0,0004.18,0000.86,0000.26
2022-04-05 17:49:00,,0812.0,4.99,0.00,24.9,24.1,00.0,34.1,26.6,14.2,0000.0,0004.06,0000.86,0000.26
2022-04-05 17:50:00,,0812.0,5.00,0.00,24.9,24.1,00.0,34.1,26.6,14.6,0000.0,0003.79,0000.87,0000.26
2022-04-05 17:51:00,,0812.0,5.01,0.00,24.9,24.1,00.0,34.1,26.6,15.2,0000.0,0003.99,0000.94,0000.26
2022-04-05 17:52:00,,0812.0,4.99,0.00,24.9,24.1,00.0,34.1,26.6,14.7,0000.0,0004.06,0000.98,0000.27
2022-04-05 17:53:00,,0812.1,5.00,0.00,24.9,24.1,00.0,34.1,26.6,14.3,0000.0,0003.97,0001.04,0000.28
2022-04-05 17:54:00,,0812.0,5.00,0.00,24.8,24.1,00.0,34.0,26.6,14.2,0000.0,0003.89,0001.03,0000.29
2022-04-05 17:55:00,,0812.0,5.00,0.00,24.9,24.1,00.0,34.0,26.6,13.3,0000.0,0003.74,0001.05,0000.30
2022-04-05 17:56:00,,0812.1,5.00,0.00,24.8,24.1,00.0,34.0,26.6,13.5,0000.0,0003.59,0001.02,0000.31
2022-04-05 17:57:00,,0812.1,5.01,0.00,24.8,24.2,00.0,34.0,26.6,13.3,0000.0,0003.55,0001.01,0000.31
2022-04-05 17:58:00,,0812.2,4.99,0.00,24.8,24.2,00.0,34.0,26.6,13.2,0000.0,0003.76,0001.09,0000.32
2022-04-05 17:59:00,,0812.2,5.00,0.00,24.9,24.2,00.0,34.0,26.6,13.1,0000.0,0003.05,0001.07,0000.32
